sat.trackr.live / text

‹ back to catalog

ONEWEB-0101

NORAD 48049 · 2021-025H

PAYLOAD ACTIVE UNKNOWN

§ Identity

Operator
Country
UK
Launch date
2021-03-25
Launch site
VOSTO
Launch vehicle
Mass (kg)
RCS (m²)

Purposes: comms

External: N2YO · Heavens-Above · Gunter

§ Orbital elements

Epoch: 2026-05-25T01:28:53.898816Z

Period
109.63 min
Inclination
87.8941°
Eccentricity
0.0001630
Mean motion
13.13468866 rev/d
Perigee alt
1,208.5 km
Apogee alt
1,211.0 km
Semi-major
7,587.9 km
B*
-8.1270e-4
RAAN
324.8338°
Arg perigee
92.2230°
Mean anomaly
267.9086°
Rev number
25,046

§ Raw data

ONEWEB-01011 48049U 21025H   26145.06173494 -.00000284  00000+0 -81270-3 0  99932 48049  87.8941 324.8338 0001630  92.2230 267.9086 13.13468866250464

JSON: /api/v1/satellites/48049 · /tle

For live sub-satellite position, see the globe view (requires WebGL).

§ Visibility from observer

Set your observer location to see the next 7 days of passes ≥ 10°. The values pass through the URL so the page stays shareable.

No JS? Fill the form by hand. The geolocation button needs JavaScript.